Regional Weather Roundup
Issued by NWS Albany, NY

Home | Current Version | Previous Version | Text Only | Print | Product List | Glossary On
Versions: 1 2 3 4 5 6 7 8 9 10 11 12 13 14 15 16 17 18 19 20 21 22 23 24 25 26 27 28
000
ASUS41 KALY 070010
RWRALY

NEW YORK STATE HOURLY WEATHER ROUNDUP
NATIONAL WEATHER SERVICE ALBANY NY
700 PM EST TUE DEC 06 2016

NOTE: "FAIR" INDICATES FEW OR NO CLOUDS BELOW 12,000 FEET WITH NO
SIGNIFICANT WEATHER AND/OR NO OBSTRUCTIONS TO VISIBILITY.

NYZ032-033-038>043-046>054-057>066-NYZ062>081-082-084-070100-
EAST


CITY           SKY/WX    TMP DP  RH WIND       PRES   REMARKS
ALBANY         CLOUDY    35  29  78 NE3       29.99R
GLENS FALLS    CLOUDY    33  27  78 E5        29.99S WCI  29
POUGHKEEPSIE   CLOUDY    39  32  76 CALM      29.98S
NEWBURGH       DRIZZLE   41  30  65 CALM      29.99R
MONTGOMERY     LGT RAIN  40  32  73 E3        29.98R
WHITE PLAINS   LGT RAIN  39  34  82 E5        29.98R
ISLIP          CLOUDY    42  33  70 NE7       29.97S
NEW YORK CITY  LGT RAIN  45  34  65 E9        29.98R
CENTRAL PARK   LGT RAIN  41  35  79 E8        30.00R
$$

NYZ005>009-017-018-044>046-055-056-070100-
CENTRAL


CITY           SKY/WX    TMP DP  RH WIND       PRES   REMARKS
FULTON         CLOUDY    39  31  72 E6        29.90F WCI  35
SYRACUSE       CLOUDY    38  32  79 E7        29.90F WCI  33
ROME           CLOUDY    37  30  75 SE6       29.95R WCI  32
ELMIRA         LGT SNOW  34  31  88 E5        29.88R VSB 1   WCI  30
BINGHAMTON     LGT SNOW  31  31 100 SE10      29.88S VSB 1   WCI  22
MONTICELLO     CLOUDY    32  30  93 E3        29.95S VSB 1
$$

NYZ026>034-041>043-087-070100-
NORTH


CITY           SKY/WX    TMP DP  RH WIND       PRES   REMARKS
WATERTOWN      MOCLDY    34  29  82 NE6       29.93R WCI  29
FORT DRUM      NOT AVBL
OGDENSBURG     FAIR      32  29  90 E8        29.95S WCI  25
MASSENA        PTCLDY    31  25  78 NE14      29.99F WCI  21
SARANAC LAKE   PTCLDY    26  23  88 NE7       29.90F WCI  18
PLATTSBURGH    CLOUDY    31  26  82 NW6       30.02S WCI  25
$$

NYZ001>004-010>016-019>021-085-070100-
WEST


CITY           SKY/WX    TMP DP  RH WIND       PRES   REMARKS
NIAGARA FALLS  LGT RAIN  37  32  82 E9        29.79F WCI  30
BUFFALO        LGT RAIN  35  32  88 E8        29.79S FOG     WCI  29
DUNKIRK        LGT RAIN  35  33  92 NE7       29.75F WCI  29
JAMESTOWN      CLOUDY    34  28  80 S10       29.71S WCI  26
WELLSVILLE     LGT RAIN  34  31  88 SE10      29.77F WCI  26
ROCHESTER      LGT SNOW  35  33  92 E9        29.85F FOG     WCI  28
PENN YAN       LGT SNOW  34  30  85 SE8       29.86F VSB 3/4 WCI  27
$$

             KEY
       WCI = WIND CHILL INDEX
       VSB = VISIBILITY
       HX  = HEAT INDEX
$$




USA.gov is the U.S. government's official web portal to all federal, state and local government web resources and services.